COSMOS 1275 DEB, 13813

Orbit data source: Space-Track

COSMOS 1275 DEB, 13813 is space debris in LEO originally from a launch on Thu, 04 Jun 1981 UTC launched from the Plesetsk Missile And Space Complex (PKMTR). Debris objects in space refer to the collection of defunct objects orbiting the Earth. Examples of debris include non-operational satellites, rocket bodies, and fragments generated from explosions, collisions, or faulty payload assembly.

Loading next visibility...
Identifier
13813, 1981-053HH
Orbit
LEO
Country
Flag of CISCIS
Related business
Manufacturer
Unknown
Mission
Spacecraft
Bus & Motor
Unknown
Mass
Unknown
Launch date (UTC)
1981-06-04 (45 years ago)
Launch vehicle
Unknown
Launch site
Plesetsk Missile And Space Complex (PKMTR)
Object type
Payload
Rocket body
Debris
Shape & HBR
Unknown shape, 0.1 m
Radar Cross Section
Small (<0.1 m²)

Expand to show TLE details & history
Last TLE update: 1 day ago

TLE from 1 day ago
0 COSMOS 1275 DEB
1 13813U 81053HH  26118.45958602  .00002526  00000-0  12745-2 0  9996
2 13813  82.9322 272.5475 0040449 254.6896 160.0442 14.15538843206824
Epoch: 2026-04-28T11:01Z
TLE epoch observation values (Epoch: 2026-04-28T11:01:48.232Z)
Latitude
54.37547°
Longitude
-99.42721°
Altitude
876.92 km
Speed
7.405 km/s
True Right ascension
18h 49m 50s
True Declination
54° 12' 55"
Sunlit
Object was in daylight at epoch
Visualization orbit readout
Latitude
Unknown
Longitude
Unknown
Altitude
Unknown
Speed
Unknown
Apparent Right ascension
Unknown
Apparent Declination
Unknown
Sunlit
N/A
Visualization observer readout
Local Sidereal Time
20:53:59
Azimuth
Unknown
Elevation
Unknown
Doppler factor
Unknown
Orbital elements
Apogee altitude
866.76 km
Perigee altitude
808.386 km
Semi-major axis
7,215.71 km
Eccentricity
0.00404
Inclination
82.9322°
RAAN
272.5475°
Arg. of periapsis
254.6896°
True anomaly
160.20165°
Mean anomaly
160.0442°
Eccentric anomaly
160.123°
Mean motion
3.54099 °/min
Orbital period
101.67 mins
BSTAR
0.0012745
Loading maneuver chart data...
Computing Atmospheric mass density...

Documentation

Showing up to 5 results
|